Location: Dötzum
(52.0808°N, 9.8063°E)
Time: 05:04:46
(UTC+00:00)

Cosmos 2278 Rocket - Pass Details

Date: 27 May 2022
Orbit: 840 x 846 km, 71.0° (Epoch: 26 June)

Event Time Altitude Azimuth Distance (km) Brightness Sun altitude
Rises 01:21:46 0° 318° (NW) 3,418 5.6 -11.8°
Reaches altitude 10° 01:25:15 10° 296° (WNW) 2,477 4.6 -11.6°
Maximum altitude 01:28:21 15° 263° (W) 2,128 3.9 -11.3°
Enters shadow 01:30:45 12° 236° (SW) 2,339 3.9 -11.1°
